Wetterdaten: Dienstag, 18.03.2014
Datum Zeit Temperatur Luftfeuchte Luftdruck Regen Wind Richtung Richtung Taupunkt Windchill Windben
18.03.2014 00:00 3,2 C 74 % 1020,5 hPa 0,0 l/m 0,0 km/h (0 Bft) SW 225 -1,0 C 16,1 C 0,0 km/h (0 Bft)
18.03.2014 00:05 3,5 C 74 % 1020,4 hPa 0,0 l/m 0,0 km/h (0 Bft) SW 225 -0,7 C 16,1 C 0,0 km/h (0 Bft)
18.03.2014 00:10 3,2 C 73 % 1020,4 hPa 0,0 l/m 0,0 km/h (0 Bft) SW 225 -1,2 C 16,1 C 0,0 km/h (0 Bft)
18.03.2014 00:15 2,7 C 75 % 1020,4 hPa 0,0 l/m 0,0 km/h (0 Bft) SW 225 -1,3 C 16,1 C 0,0 km/h (0 Bft)
18.03.2014 00:20 2,2 C 75 % 1020,4 hPa 0,0 l/m 0,0 km/h (0 Bft) SW 225 -1,8 C 16,1 C 0,0 km/h (0 Bft)
18.03.2014 00:25 2,3 C 76 % 1020,4 hPa 0,0 l/m 0,0 km/h (0 Bft) SW 225 -1,5 C 16,1 C 0,0 km/h (0 Bft)
18.03.2014 00:30 2,3 C 76 % 1020,4 hPa 0,0 l/m 0,0 km/h (0 Bft) SW 225 -1,5 C 16,1 C 0,0 km/h (0 Bft)
18.03.2014 00:35 2,2 C 76 % 1020,4 hPa 0,0 l/m 0,0 km/h (0 Bft) SW 225 -1,6 C 16,1 C 0,0 km/h (0 Bft)
18.03.2014 00:40 1,8 C 76 % 1020,4 hPa 0,0 l/m 0,0 km/h (0 Bft) SW 225 -2,0 C 16,1 C 0,0 km/h (0 Bft)
18.03.2014 00:45 2,2 C 77 % 1020,3 hPa 0,0 l/m 0,0 km/h (0 Bft) SW 225 -1,4 C 16,1 C 0,0 km/h (0 Bft)
18.03.2014 00:50 2,3 C 77 % 1020,3 hPa 0,0 l/m 0,0 km/h (0 Bft) SW 225 -1,3 C 16,1 C 0,0 km/h (0 Bft)
18.03.2014 00:55 2,6 C 77 % 1020,3 hPa 0,0 l/m 0,0 km/h (0 Bft) SW 225 -1,0 C 16,1 C 0,0 km/h (0 Bft)
18.03.2014 01:00 2,3 C 77 % 1020,3 hPa 0,0 l/m 0,0 km/h (0 Bft) SW 225 -1,3 C 16,1 C 0,0 km/h (0 Bft)
18.03.2014 01:05 2,0 C 76 % 1020,4 hPa 0,0 l/m 0,0 km/h (0 Bft) SW 225 -1,8 C 16,1 C 0,0 km/h (0 Bft)
18.03.2014 01:10 2,1 C 78 % 1020,4 hPa 0,0 l/m 0,0 km/h (0 Bft) SW 225 -1,3 C 16,1 C 0,0 km/h (0 Bft)
18.03.2014 01:15 2,0 C 78 % 1020,4 hPa 0,0 l/m 0,0 km/h (0 Bft) SW 225 -1,4 C 16,1 C 0,0 km/h (0 Bft)
18.03.2014 01:20 2,4 C 78 % 1020,4 hPa 0,0 l/m 0,0 km/h (0 Bft) SW 225 -1,0 C 16,1 C 0,0 km/h (0 Bft)
18.03.2014 01:25 1,9 C 78 % 1020,2 hPa 0,0 l/m 0,0 km/h (0 Bft) SW 225 -1,5 C 16,1 C 0,0 km/h (0 Bft)
18.03.2014 01:30 2,3 C 78 % 1020,2 hPa 0,0 l/m 0,0 km/h (0 Bft) SW 225 -1,1 C 16,1 C 0,0 km/h (0 Bft)
18.03.2014 01:35 2,3 C 78 % 1020,2 hPa 0,0 l/m 0,0 km/h (0 Bft) SW 225 -1,1 C 16,1 C 0,0 km/h (0 Bft)
18.03.2014 01:40 2,2 C 77 % 1020,2 hPa 0,0 l/m 0,0 km/h (0 Bft) SW 225 -1,4 C 16,1 C 0,0 km/h (0 Bft)
18.03.2014 01:45 1,5 C 77 % 1020,0 hPa 0,0 l/m 0,0 km/h (0 Bft) SW 225 -2,1 C 16,1 C 0,0 km/h (0 Bft)
18.03.2014 01:50 1,4 C 78 % 1020,0 hPa 0,0 l/m 0,0 km/h (0 Bft) SW 225 -2,0 C 16,1 C 0,0 km/h (0 Bft)
18.03.2014 01:55 1,3 C 78 % 1020,0 hPa 0,0 l/m 0,0 km/h (0 Bft) SW 225 -2,1 C 16,1 C 0,0 km/h (0 Bft)
18.03.2014 02:00 0,9 C 78 % 1020,0 hPa 0,0 l/m 0,0 km/h (0 Bft) SW 225 -2,5 C 16,1 C 0,0 km/h (0 Bft)
18.03.2014 02:05 1,0 C 78 % 1019,9 hPa 0,0 l/m 0,0 km/h (0 Bft) SW 225 -2,4 C 16,1 C 0,0 km/h (0 Bft)
18.03.2014 02:10 0,9 C 78 % 1019,9 hPa 0,0 l/m 0,0 km/h (0 Bft) SW 225 -2,5 C 16,1 C 0,0 km/h (0 Bft)
18.03.2014 02:15 1,0 C 79 % 1019,9 hPa 0,0 l/m 0,0 km/h (0 Bft) SW 225 -2,2 C 16,1 C 0,0 km/h (0 Bft)
18.03.2014 02:20 0,7 C 79 % 1019,9 hPa 0,0 l/m 0,0 km/h (0 Bft) SW 225 -2,5 C 16,1 C 0,0 km/h (0 Bft)
18.03.2014 02:25 0,6 C 79 % 1019,9 hPa 0,0 l/m 0,0 km/h (0 Bft) SW 225 -2,6 C 16,1 C 0,0 km/h (0 Bft)
18.03.2014 02:30 0,6 C 79 % 1019,9 hPa 0,0 l/m 0,0 km/h (0 Bft) SW 225 -2,6 C 16,1 C 0,0 km/h (0 Bft)
18.03.2014 02:35 0,5 C 79 % 1019,9 hPa 0,0 l/m 0,0 km/h (0 Bft) SW 225 -2,7 C 16,1 C 0,0 km/h (0 Bft)
18.03.2014 02:40 0,7 C 79 % 1019,9 hPa 0,0 l/m 0,0 km/h (0 Bft) SW 225 -2,5 C 16,1 C 0,0 km/h (0 Bft)
18.03.2014 02:45 0,6 C 79 % 1019,6 hPa 0,0 l/m 0,0 km/h (0 Bft) SW 225 -2,6 C 16,1 C 0,0 km/h (0 Bft)
18.03.2014 02:50 0,3 C 79 % 1019,6 hPa 0,0 l/m 0,0 km/h (0 Bft) SW 225 -2,9 C 16,1 C 0,0 km/h (0 Bft)
18.03.2014 02:55 0,5 C 80 % 1019,6 hPa 0,0 l/m 0,0 km/h (0 Bft) SW 225 -2,5 C 16,1 C 0,0 km/h (0 Bft)
18.03.2014 03:00 0,3 C 80 % 1019,6 hPa 0,0 l/m 0,0 km/h (0 Bft) SW 225 -2,7 C 16,1 C 0,0 km/h (0 Bft)
18.03.2014 03:05 0,2 C 80 % 1019,4 hPa 0,0 l/m 0,0 km/h (0 Bft) SW 225 -2,8 C 16,1 C 0,0 km/h (0 Bft)
18.03.2014 03:10 0,2 C 80 % 1019,4 hPa 0,0 l/m 0,0 km/h (0 Bft) SW 225 -2,8 C 16,1 C 0,0 km/h (0 Bft)
18.03.2014 03:13 0,0 C 80 % 1019,4 hPa 0,0 l/m 0,0 km/h (0 Bft) SW 225 -3,0 C 16,1 C 0,0 km/h (0 Bft)
18.03.2014 03:15 0,0 C 80 % 1019,4 hPa 0,0 l/m 0,0 km/h (0 Bft) SW 225 -3,0 C 16,1 C 0,0 km/h (0 Bft)
18.03.2014 03:20 0,2 C 80 % 1019,4 hPa 0,0 l/m 0,0 km/h (0 Bft) SW 225 -2,8 C 16,1 C 0,0 km/h (0 Bft)
18.03.2014 03:25 0,2 C 81 % 1019,2 hPa 0,0 l/m 0,0 km/h (0 Bft) SW 225 -2,7 C 16,1 C 0,0 km/h (0 Bft)
18.03.2014 03:30 0,0 C 81 % 1019,2 hPa 0,0 l/m 0,0 km/h (0 Bft) SW 225 -2,9 C 16,1 C 0,0 km/h (0 Bft)
18.03.2014 03:35 0,0 C 81 % 1019,2 hPa 0,0 l/m 0,0 km/h (0 Bft) SW 225 -2,9 C 16,1 C 0,0 km/h (0 Bft)
18.03.2014 03:40 0,0 C 81 % 1019,2 hPa 0,0 l/m 0,0 km/h (0 Bft) SW 225 -2,9 C 16,1 C 0,0 km/h (0 Bft)
18.03.2014 03:45 0,1 C 81 % 1018,9 hPa 0,0 l/m 0,0 km/h (0 Bft) SW 225 -2,8 C 16,1 C 0,0 km/h (0 Bft)
18.03.2014 03:50 0,3 C 82 % 1018,9 hPa 0,0 l/m 0,0 km/h (0 Bft) SW 225 -2,4 C 16,1 C 0,0 km/h (0 Bft)
18.03.2014 03:55 0,5 C 82 % 1018,9 hPa 0,0 l/m 0,0 km/h (0 Bft) SW 225 -2,2 C 16,1 C 0,0 km/h (0 Bft)
18.03.2014 04:00 0,3 C 82 % 1018,9 hPa 0,0 l/m 0,0 km/h (0 Bft) SW 225 -2,4 C 16,1 C 0,0 km/h (0 Bft)
18.03.2014 04:05 0,4 C 83 % 1018,6 hPa 0,0 l/m 0,0 km/h (0 Bft) SW 225 -2,1 C 16,1 C 0,0 km/h (0 Bft)
18.03.2014 04:10 0,2 C 83 % 1018,6 hPa 0,0 l/m 0,0 km/h (0 Bft) SW 225 -2,3 C 16,1 C 0,0 km/h (0 Bft)
18.03.2014 04:15 0,3 C 83 % 1018,6 hPa 0,0 l/m 0,0 km/h (0 Bft) SW 225 -2,2 C 16,1 C 0,0 km/h (0 Bft)
18.03.2014 04:20 0,4 C 83 % 1018,6 hPa 0,0 l/m 0,0 km/h (0 Bft) SW 225 -2,1 C 16,1 C 0,0 km/h (0 Bft)
18.03.2014 04:25 0,5 C 82 % 1018,6 hPa 0,0 l/m 0,0 km/h (0 Bft) SW 225 -2,2 C 16,1 C 0,0 km/h (0 Bft)
18.03.2014 04:30 0,3 C 82 % 1018,6 hPa 0,0 l/m 0,0 km/h (0 Bft) SW 225 -2,4 C 16,1 C 0,0 km/h (0 Bft)
18.03.2014 04:35 0,1 C 82 % 1018,6 hPa 0,0 l/m 0,0 km/h (0 Bft) SW 225 -2,6 C 16,1 C 0,0 km/h (0 Bft)
18.03.2014 04:40 0,2 C 82 % 1018,6 hPa 0,0 l/m 0,0 km/h (0 Bft) SW 225 -2,5 C 16,1 C 0,0 km/h (0 Bft)
18.03.2014 04:45 -0,1 C 81 % 1018,6 hPa 0,0 l/m 0,0 km/h (0 Bft) SW 225 -3,0 C 16,1 C 0,0 km/h (0 Bft)
18.03.2014 04:50 -0,1 C 82 % 1018,6 hPa 0,0 l/m 0,0 km/h (0 Bft) SW 225 -2,8 C 16,1 C 0,0 km/h (0 Bft)
18.03.2014 04:55 -0,2 C 83 % 1018,6 hPa 0,0 l/m 0,0 km/h (0 Bft) SW 225 -2,7 C 16,1 C 0,0 km/h (0 Bft)
18.03.2014 05:00 -0,3 C 83 % 1018,6 hPa 0,0 l/m 0,0 km/h (0 Bft) SW 225 -2,8 C 16,1 C 0,0 km/h (0 Bft)
18.03.2014 05:05 -0,1 C 83 % 1018,5 hPa 0,0 l/m 0,0 km/h (0 Bft) SW 225 -2,6 C 16,1 C 0,0 km/h (0 Bft)
18.03.2014 05:10 -0,4 C 82 % 1018,5 hPa 0,0 l/m 0,0 km/h (0 Bft) SW 225 -3,1 C 16,1 C 0,0 km/h (0 Bft)
18.03.2014 05:15 -0,5 C 82 % 1018,5 hPa 0,0 l/m 0,0 km/h (0 Bft) SW 225 -3,2 C 16,1 C 0,0 km/h (0 Bft)
18.03.2014 05:20 -0,2 C 83 % 1018,5 hPa 0,0 l/m 0,0 km/h (0 Bft) SW 225 -2,7 C 16,1 C 0,0 km/h (0 Bft)
18.03.2014 05:25 -0,1 C 83 % 1018,6 hPa 0,0 l/m 0,0 km/h (0 Bft) SW 225 -2,6 C 16,1 C 0,0 km/h (0 Bft)
18.03.2014 05:30 -0,3 C 83 % 1018,6 hPa 0,0 l/m 0,0 km/h (0 Bft) SW 225 -2,8 C 16,1 C 0,0 km/h (0 Bft)
18.03.2014 05:35 -0,3 C 83 % 1018,6 hPa 0,0 l/m 0,0 km/h (0 Bft) SW 225 -2,8 C 16,1 C 0,0 km/h (0 Bft)
18.03.2014 05:40 -0,4 C 83 % 1018,6 hPa 0,0 l/m 0,0 km/h (0 Bft) SW 225 -2,9 C 16,1 C 0,0 km/h (0 Bft)
18.03.2014 05:45 -0,6 C 83 % 1018,4 hPa 0,0 l/m 0,0 km/h (0 Bft) SW 225 -3,1 C 16,1 C 0,0 km/h (0 Bft)
18.03.2014 05:50 -0,8 C 83 % 1018,4 hPa 0,0 l/m 0,0 km/h (0 Bft) SW 225 -3,3 C 16,1 C 0,0 km/h (0 Bft)
18.03.2014 05:55 -1,0 C 83 % 1018,4 hPa 0,0 l/m 0,0 km/h (0 Bft) SW 225 -3,5 C 16,1 C 0,0 km/h (0 Bft)
18.03.2014 06:00 -0,9 C 83 % 1018,4 hPa 0,0 l/m 0,0 km/h (0 Bft) SW 225 -3,4 C 16,1 C 0,0 km/h (0 Bft)
18.03.2014 06:05 -0,7 C 84 % 1018,4 hPa 0,0 l/m 0,0 km/h (0 Bft) SW 225 -3,1 C 16,1 C 0,0 km/h (0 Bft)
18.03.2014 06:10 -0,6 C 85 % 1018,4 hPa 0,0 l/m 0,0 km/h (0 Bft) SW 225 -2,8 C 16,1 C 0,0 km/h (0 Bft)
18.03.2014 06:15 -0,6 C 85 % 1018,4 hPa 0,0 l/m 0,0 km/h (0 Bft) SW 225 -2,8 C 16,1 C 0,0 km/h (0 Bft)
18.03.2014 06:20 -0,5 C 85 % 1018,4 hPa 0,0 l/m 0,0 km/h (0 Bft) SW 225 -2,7 C 16,1 C 0,0 km/h (0 Bft)
18.03.2014 06:25 -0,3 C 86 % 1018,0 hPa 0,0 l/m 0,0 km/h (0 Bft) SW 225 -2,3 C 16,1 C 0,0 km/h (0 Bft)
18.03.2014 06:30 -0,4 C 86 % 1018,0 hPa 0,0 l/m 0,0 km/h (0 Bft) SW 225 -2,4 C 16,1 C 0,0 km/h (0 Bft)
18.03.2014 06:35 -0,5 C 85 % 1018,0 hPa 0,0 l/m 0,0 km/h (0 Bft) SW 225 -2,7 C 16,1 C 0,0 km/h (0 Bft)
18.03.2014 06:40 -0,3 C 85 % 1018,0 hPa 0,0 l/m 0,0 km/h (0 Bft) SW 225 -2,5 C 16,1 C 0,0 km/h (0 Bft)
18.03.2014 06:45 -0,5 C 85 % 1018,2 hPa 0,0 l/m 0,0 km/h (0 Bft) SW 225 -2,7 C 16,1 C 0,0 km/h (0 Bft)
18.03.2014 06:50 -0,1 C 85 % 1018,2 hPa 0,0 l/m 0,0 km/h (0 Bft) SW 225 -2,3 C 16,1 C 0,0 km/h (0 Bft)
18.03.2014 06:55 -0,3 C 85 % 1018,2 hPa 0,0 l/m 0,0 km/h (0 Bft) SW 225 -2,5 C 16,1 C 0,0 km/h (0 Bft)
18.03.2014 07:00 -0,3 C 85 % 1018,2 hPa 0,0 l/m 0,0 km/h (0 Bft) SW 225 -2,5 C 16,1 C 0,0 km/h (0 Bft)
18.03.2014 07:05 0,0 C 85 % 1018,2 hPa 0,0 l/m 0,0 km/h (0 Bft) SW 225 -2,2 C 16,1 C 0,0 km/h (0 Bft)
18.03.2014 07:10 0,2 C 85 % 1018,2 hPa 0,0 l/m 0,0 km/h (0 Bft) SW 225 -2,0 C 16,1 C 0,0 km/h (0 Bft)
18.03.2014 07:15 0,2 C 85 % 1018,2 hPa 0,0 l/m 0,0 km/h (0 Bft) SW 225 -2,0 C 16,1 C 0,0 km/h (0 Bft)
18.03.2014 07:20 0,2 C 85 % 1018,2 hPa 0,0 l/m 0,0 km/h (0 Bft) SW 225 -2,0 C 16,1 C 0,0 km/h (0 Bft)
18.03.2014 07:25 0,3 C 85 % 1018,2 hPa 0,0 l/m 0,0 km/h (0 Bft) SW 225 -1,9 C 16,1 C 0,0 km/h (0 Bft)
18.03.2014 07:30 0,4 C 85 % 1018,2 hPa 0,0 l/m 0,0 km/h (0 Bft) SW 225 -1,8 C 16,1 C 0,0 km/h (0 Bft)
18.03.2014 07:35 0,8 C 85 % 1018,2 hPa 0,0 l/m 0,0 km/h (0 Bft) SW 225 -1,4 C 16,1 C 0,0 km/h (0 Bft)
18.03.2014 07:40 2,1 C 85 % 1018,2 hPa 0,0 l/m 0,0 km/h (0 Bft) SW 225 -0,2 C 16,1 C 0,0 km/h (0 Bft)
18.03.2014 07:45 2,3 C 84 % 1018,2 hPa 0,0 l/m 0,0 km/h (0 Bft) SW 225 -0,1 C 16,1 C 0,0 km/h (0 Bft)
18.03.2014 07:50 2,6 C 83 % 1018,2 hPa 0,0 l/m 0,0 km/h (0 Bft) SW 225 0,0 C 16,1 C 0,0 km/h (0 Bft)
18.03.2014 07:55 2,6 C 82 % 1018,2 hPa 0,0 l/m 0,0 km/h (0 Bft) SW 225 -0,2 C 16,1 C 0,0 km/h (0 Bft)
18.03.2014 08:00 3,1 C 80 % 1018,2 hPa 0,0 l/m 0,0 km/h (0 Bft) SW 225 -0,0 C 16,1 C 0,0 km/h (0 Bft)
18.03.2014 08:05 4,1 C 79 % 1018,5 hPa 0,0 l/m 0,0 km/h (0 Bft) SW 225 0,8 C 16,1 C 0,0 km/h (0 Bft)
18.03.2014 08:10 5,8 C 77 % 1018,5 hPa 0,0 l/m 0,0 km/h (0 Bft) SW 225 2,1 C 16,1 C 0,0 km/h (0 Bft)
18.03.2014 08:13 4,7 C 76 % 1018,5 hPa 0,0 l/m 0,0 km/h (0 Bft) SW 225 0,8 C 16,1 C 0,0 km/h (0 Bft)
18.03.2014 08:15 4,7 C 76 % 1018,5 hPa 0,0 l/m 0,0 km/h (0 Bft) SW 225 0,8 C 16,1 C 0,0 km/h (0 Bft)
18.03.2014 08:20 5,7 C 75 % 1018,5 hPa 0,0 l/m 0,0 km/h (0 Bft) SW 225 1,6 C 16,1 C 0,0 km/h (0 Bft)
18.03.2014 08:25 7,4 C 72 % 1018,8 hPa 0,0 l/m 0,0 km/h (0 Bft) SW 225 2,7 C 16,1 C 0,0 km/h (0 Bft)
18.03.2014 08:30 8,7 C 63 % 1018,8 hPa 0,0 l/m 0,0 km/h (0 Bft) SW 225 2,1 C 16,1 C 0,0 km/h (0 Bft)
18.03.2014 08:35 10,1 C 61 % 1018,8 hPa 0,0 l/m 0,0 km/h (0 Bft) SW 225 2,9 C 16,1 C 0,0 km/h (0 Bft)
18.03.2014 08:40 11,2 C 57 % 1018,8 hPa 0,0 l/m 0,0 km/h (0 Bft) SW 225 3,0 C 16,1 C 0,0 km/h (0 Bft)
18.03.2014 08:45 11,5 C 56 % 1019,0 hPa 0,0 l/m 0,0 km/h (0 Bft) SW 225 3,0 C 16,1 C 0,0 km/h (0 Bft)
18.03.2014 08:50 13,4 C 56 % 1019,0 hPa 0,0 l/m 0,0 km/h (0 Bft) SW 225 4,8 C 16,1 C 0,0 km/h (0 Bft)
18.03.2014 08:55 14,2 C 55 % 1019,0 hPa 0,0 l/m 0,0 km/h (0 Bft) SW 225 5,3 C 16,1 C 0,0 km/h (0 Bft)
18.03.2014 09:00 14,2 C 53 % 1019,0 hPa 0,0 l/m 0,0 km/h (0 Bft) SW 225 4,8 C 16,1 C 0,0 km/h (0 Bft)
18.03.2014 09:05 14,2 C 49 % 1019,3 hPa 0,0 l/m 0,0 km/h (0 Bft) SW 225 3,6 C 16,1 C 0,0 km/h (0 Bft)
18.03.2014 09:10 14,2 C 48 % 1019,3 hPa 0,0 l/m 0,0 km/h (0 Bft) SW 225 3,4 C 16,1 C 0,0 km/h (0 Bft)
18.03.2014 09:15 14,8 C 47 % 1019,3 hPa 0,0 l/m 0,0 km/h (0 Bft) SW 225 3,6 C 16,1 C 0,0 km/h (0 Bft)
18.03.2014 09:20 15,6 C 48 % 1019,3 hPa 0,0 l/m 0,0 km/h (0 Bft) SW 225 4,6 C 16,1 C 0,0 km/h (0 Bft)
18.03.2014 09:25 16,6 C 47 % 1019,4 hPa 0,0 l/m 0,0 km/h (0 Bft) SW 225 5,2 C 16,1 C 0,0 km/h (0 Bft)
18.03.2014 09:30 16,5 C 41 % 1019,4 hPa 0,0 l/m 0,0 km/h (0 Bft) SW 225 3,2 C 16,1 C 0,0 km/h (0 Bft)
18.03.2014 09:35 16,5 C 39 % 1019,4 hPa 0,0 l/m 0,0 km/h (0 Bft) SW 225 2,5 C 16,1 C 0,0 km/h (0 Bft)
18.03.2014 09:40 17,0 C 37 % 1019,4 hPa 0,0 l/m 0,0 km/h (0 Bft) SW 225 2,2 C 16,1 C 0,0 km/h (0 Bft)
18.03.2014 09:45 17,0 C 36 % 1019,7 hPa 0,0 l/m 0,0 km/h (0 Bft) SW 225 1,8 C 16,1 C 0,0 km/h (0 Bft)
18.03.2014 09:50 17,2 C 34 % 1019,7 hPa 0,0 l/m 0,0 km/h (0 Bft) SW 225 1,2 C 16,1 C 0,0 km/h (0 Bft)
18.03.2014 09:55 17,2 C 36 % 1019,7 hPa 0,0 l/m 0,0 km/h (0 Bft) SW 225 2,0 C 16,1 C 0,0 km/h (0 Bft)
18.03.2014 10:00 17,3 C 33 % 1019,7 hPa 0,0 l/m 0,0 km/h (0 Bft) SW 225 0,9 C 16,1 C 0,0 km/h (0 Bft)
18.03.2014 10:05 17,2 C 33 % 1019,8 hPa 0,0 l/m 0,0 km/h (0 Bft) SW 225 0,8 C 16,1 C 0,0 km/h (0 Bft)
18.03.2014 10:10 17,6 C 33 % 1019,8 hPa 0,0 l/m 0,0 km/h (0 Bft) SW 225 1,1 C 16,1 C 0,0 km/h (0 Bft)
18.03.2014 10:15 18,5 C 33 % 1019,8 hPa 0,0 l/m 0,0 km/h (0 Bft) SW 225 1,9 C 16,1 C 0,0 km/h (0 Bft)
18.03.2014 10:20 18,6 C 33 % 1019,8 hPa 0,0 l/m 0,0 km/h (0 Bft) SW 225 2,0 C 16,1 C 0,0 km/h (0 Bft)
18.03.2014 10:25 18,3 C 33 % 1019,8 hPa 0,0 l/m 0,0 km/h (0 Bft) SW 225 1,8 C 16,1 C 0,0 km/h (0 Bft)
18.03.2014 10:30 18,6 C 31 % 1019,8 hPa 0,0 l/m 0,0 km/h (0 Bft) SW 225 1,1 C 16,1 C 0,0 km/h (0 Bft)
18.03.2014 10:35 18,9 C 30 % 1019,8 hPa 0,0 l/m 0,0 km/h (0 Bft) SW 225 1,0 C 16,1 C 0,0 km/h (0 Bft)
18.03.2014 10:40 19,5 C 30 % 1019,8 hPa 0,0 l/m 0,0 km/h (0 Bft) SW 225 1,5 C 16,1 C 0,0 km/h (0 Bft)
18.03.2014 10:45 19,1 C 30 % 1019,7 hPa 0,0 l/m 0,0 km/h (0 Bft) SW 225 1,1 C 16,1 C 0,0 km/h (0 Bft)
18.03.2014 10:50 19,5 C 30 % 1019,7 hPa 0,0 l/m 0,0 km/h (0 Bft) SW 225 1,5 C 16,1 C 0,0 km/h (0 Bft)
18.03.2014 10:55 19,4 C 30 % 1019,7 hPa 0,0 l/m 0,0 km/h (0 Bft) SW 225 1,4 C 16,1 C 0,0 km/h (0 Bft)
18.03.2014 11:00 20,0 C 30 % 1019,7 hPa 0,0 l/m 0,0 km/h (0 Bft) SW 225 1,9 C 16,1 C 0,0 km/h (0 Bft)
18.03.2014 11:05 20,0 C 27 % 1019,6 hPa 0,0 l/m 0,0 km/h (0 Bft) SW 225 0,4 C 16,1 C 0,0 km/h (0 Bft)
18.03.2014 11:10 19,9 C 27 % 1019,6 hPa 0,0 l/m 0,0 km/h (0 Bft) SW 225 0,4 C 16,1 C 0,0 km/h (0 Bft)
18.03.2014 11:15 19,8 C 28 % 1019,6 hPa 0,0 l/m 0,0 km/h (0 Bft) SW 225 0,8 C 16,1 C 0,0 km/h (0 Bft)
18.03.2014 11:20 19,7 C 29 % 1019,6 hPa 0,0 l/m 0,0 km/h (0 Bft) SW 225 1,2 C 16,1 C 0,0 km/h (0 Bft)
18.03.2014 11:25 19,3 C 30 % 1019,8 hPa 0,0 l/m 0,0 km/h (0 Bft) SW 225 1,3 C 16,1 C 0,0 km/h (0 Bft)
18.03.2014 11:30 19,6 C 31 % 1019,8 hPa 0,0 l/m 0,0 km/h (0 Bft) SW 225 2,0 C 16,1 C 0,0 km/h (0 Bft)
18.03.2014 11:35 19,6 C 30 % 1019,8 hPa 0,0 l/m 0,0 km/h (0 Bft) SW 225 1,6 C 16,1 C 0,0 km/h (0 Bft)
18.03.2014 11:40 19,5 C 31 % 1019,8 hPa 0,0 l/m 0,0 km/h (0 Bft) SW 225 1,9 C 16,1 C 0,0 km/h (0 Bft)
18.03.2014 11:45 19,5 C 31 % 1019,4 hPa 0,0 l/m 0,0 km/h (0 Bft) SW 225 1,9 C 16,1 C 0,0 km/h (0 Bft)
18.03.2014 11:50 19,5 C 31 % 1019,4 hPa 0,0 l/m 0,0 km/h (0 Bft) SW 225 1,9 C 16,1 C 0,0 km/h (0 Bft)
18.03.2014 11:55 19,1 C 31 % 1019,4 hPa 0,0 l/m 0,0 km/h (0 Bft) SW 225 1,6 C 16,1 C 0,0 km/h (0 Bft)
18.03.2014 12:00 19,0 C 31 % 1019,4 hPa 0,0 l/m 0,0 km/h (0 Bft) SW 225 1,5 C 16,1 C 0,0 km/h (0 Bft)
18.03.2014 12:05 18,8 C 32 % 1019,4 hPa 0,0 l/m 0,0 km/h (0 Bft) SW 225 1,8 C 16,1 C 0,0 km/h (0 Bft)
18.03.2014 12:10 19,1 C 31 % 1019,4 hPa 0,0 l/m 0,0 km/h (0 Bft) SW 225 1,6 C 16,1 C 0,0 km/h (0 Bft)
18.03.2014 12:15 19,2 C 32 % 1019,4 hPa 0,0 l/m 0,0 km/h (0 Bft) SW 225 2,1 C 16,1 C 0,0 km/h (0 Bft)
18.03.2014 12:20 19,6 C 32 % 1019,4 hPa 0,0 l/m 0,0 km/h (0 Bft) SW 225 2,5 C 16,1 C 0,0 km/h (0 Bft)
18.03.2014 12:25 19,7 C 32 % 1019,2 hPa 0,0 l/m 0,0 km/h (0 Bft) SW 225 2,5 C 16,1 C 0,0 km/h (0 Bft)
18.03.2014 12:30 20,3 C 32 % 1019,2 hPa 0,0 l/m 0,0 km/h (0 Bft) SW 225 3,1 C 16,1 C 0,0 km/h (0 Bft)
18.03.2014 12:35 19,8 C 31 % 1019,2 hPa 0,0 l/m 0,0 km/h (0 Bft) SW 225 2,2 C 16,1 C 0,0 km/h (0 Bft)
18.03.2014 12:40 19,7 C 32 % 1019,2 hPa 0,0 l/m 0,0 km/h (0 Bft) SW 225 2,5 C 16,1 C 0,0 km/h (0 Bft)
18.03.2014 12:45 19,5 C 32 % 1019,0 hPa 0,0 l/m 0,0 km/h (0 Bft) SW 225 2,4 C 16,1 C 0,0 km/h (0 Bft)
18.03.2014 12:50 19,5 C 31 % 1019,0 hPa 0,0 l/m 0,0 km/h (0 Bft) SW 225 1,9 C 16,1 C 0,0 km/h (0 Bft)
18.03.2014 12:55 19,5 C 30 % 1019,0 hPa 0,0 l/m 0,0 km/h (0 Bft) SW 225 1,5 C 16,1 C 0,0 km/h (0 Bft)
18.03.2014 13:00 20,0 C 31 % 1019,0 hPa 0,0 l/m 0,0 km/h (0 Bft) SW 225 2,4 C 16,1 C 0,0 km/h (0 Bft)
18.03.2014 13:05 20,2 C 30 % 1018,8 hPa 0,0 l/m 0,0 km/h (0 Bft) SW 225 2,1 C 16,1 C 0,0 km/h (0 Bft)
18.03.2014 13:10 20,1 C 30 % 1018,8 hPa 0,0 l/m 0,0 km/h (0 Bft) SW 225 2,0 C 16,1 C 0,0 km/h (0 Bft)
18.03.2014 13:13 20,2 C 30 % 1018,8 hPa 0,0 l/m 0,0 km/h (0 Bft) SW 225 2,1 C 16,1 C 0,0 km/h (0 Bft)
18.03.2014 13:15 20,2 C 30 % 1018,8 hPa 0,0 l/m 0,0 km/h (0 Bft) SW 225 2,1 C 16,1 C 0,0 km/h (0 Bft)
18.03.2014 13:20 20,3 C 29 % 1018,8 hPa 0,0 l/m 0,0 km/h (0 Bft) SW 225 1,7 C 16,1 C 0,0 km/h (0 Bft)
18.03.2014 13:25 19,9 C 28 % 1018,6 hPa 0,0 l/m 0,0 km/h (0 Bft) SW 225 0,9 C 16,1 C 0,0 km/h (0 Bft)
18.03.2014 13:30 20,3 C 28 % 1018,6 hPa 0,0 l/m 0,0 km/h (0 Bft) SW 225 1,2 C 16,1 C 0,0 km/h (0 Bft)
18.03.2014 13:35 20,0 C 28 % 1018,6 hPa 0,0 l/m 0,0 km/h (0 Bft) SW 225 0,9 C 16,1 C 0,0 km/h (0 Bft)
18.03.2014 13:40 20,1 C 27 % 1018,6 hPa 0,0 l/m 0,0 km/h (0 Bft) SW 225 0,5 C 16,1 C 0,0 km/h (0 Bft)
18.03.2014 13:45 20,4 C 27 % 1018,2 hPa 0,0 l/m 0,0 km/h (0 Bft) SW 225 0,8 C 16,1 C 0,0 km/h (0 Bft)
18.03.2014 13:50 20,5 C 26 % 1018,2 hPa 0,0 l/m 0,0 km/h (0 Bft) SW 225 0,3 C 16,1 C 0,0 km/h (0 Bft)
18.03.2014 13:55 20,6 C 27 % 1018,2 hPa 0,0 l/m 0,0 km/h (0 Bft) SW 225 0,9 C 16,1 C 0,0 km/h (0 Bft)
18.03.2014 14:00 20,5 C 26 % 1018,2 hPa 0,0 l/m 0,0 km/h (0 Bft) SW 225 0,3 C 16,1 C 0,0 km/h (0 Bft)
18.03.2014 14:05 19,9 C 26 % 1018,0 hPa 0,0 l/m 0,0 km/h (0 Bft) SW 225 -0,2 C 16,1 C 0,0 km/h (0 Bft)
18.03.2014 14:10 20,2 C 26 % 1018,0 hPa 0,0 l/m 0,0 km/h (0 Bft) SW 225 0,1 C 16,1 C 0,0 km/h (0 Bft)
18.03.2014 14:15 20,4 C 27 % 1018,0 hPa 0,0 l/m 0,0 km/h (0 Bft) SW 225 0,8 C 16,1 C 0,0 km/h (0 Bft)
18.03.2014 14:20 20,3 C 26 % 1018,0 hPa 0,0 l/m 0,0 km/h (0 Bft) SW 225 0,2 C 16,1 C 0,0 km/h (0 Bft)
18.03.2014 14:25 20,3 C 26 % 1017,8 hPa 0,0 l/m 0,0 km/h (0 Bft) SW 225 0,2 C 16,1 C 0,0 km/h (0 Bft)
18.03.2014 14:30 20,1 C 26 % 1017,8 hPa 0,0 l/m 0,0 km/h (0 Bft) SW 225 0,0 C 16,1 C 0,0 km/h (0 Bft)
18.03.2014 14:35 19,7 C 26 % 1017,8 hPa 0,0 l/m 0,0 km/h (0 Bft) SW 225 -0,3 C 16,1 C 0,0 km/h (0 Bft)
18.03.2014 14:40 20,1 C 26 % 1017,8 hPa 0,0 l/m 0,0 km/h (0 Bft) SW 225 0,0 C 16,1 C 0,0 km/h (0 Bft)
18.03.2014 14:45 19,8 C 26 % 1017,6 hPa 0,0 l/m 0,0 km/h (0 Bft) SW 225 -0,3 C 16,1 C 0,0 km/h (0 Bft)
18.03.2014 14:50 19,9 C 26 % 1017,6 hPa 0,0 l/m 0,0 km/h (0 Bft) SW 225 -0,2 C 16,1 C 0,0 km/h (0 Bft)
18.03.2014 14:55 20,0 C 26 % 1017,6 hPa 0,0 l/m 0,0 km/h (0 Bft) SW 225 -0,1 C 16,1 C 0,0 km/h (0 Bft)
18.03.2014 15:00 19,7 C 26 % 1017,6 hPa 0,0 l/m 0,0 km/h (0 Bft) SW 225 -0,3 C 16,1 C 0,0 km/h (0 Bft)
18.03.2014 15:05 19,4 C 26 % 1017,4 hPa 0,0 l/m 0,0 km/h (0 Bft) SW 225 -0,6 C 16,1 C 0,0 km/h (0 Bft)
18.03.2014 15:10 19,3 C 26 % 1017,4 hPa 0,0 l/m 0,0 km/h (0 Bft) SW 225 -0,7 C 16,1 C 0,0 km/h (0 Bft)
18.03.2014 15:15 19,4 C 26 % 1017,4 hPa 0,0 l/m 0,0 km/h (0 Bft) SW 225 -0,6 C 16,1 C 0,0 km/h (0 Bft)
18.03.2014 15:20 19,3 C 26 % 1017,4 hPa 0,0 l/m 0,0 km/h (0 Bft) SW 225 -0,7 C 16,1 C 0,0 km/h (0 Bft)
18.03.2014 15:25 19,2 C 27 % 1016,9 hPa 0,0 l/m 0,0 km/h (0 Bft) SW 225 -0,2 C 16,1 C 0,0 km/h (0 Bft)
18.03.2014 15:30 19,1 C 27 % 1016,9 hPa 0,0 l/m 0,0 km/h (0 Bft) SW 225 -0,3 C 16,1 C 0,0 km/h (0 Bft)
18.03.2014 15:35 19,1 C 26 % 1016,9 hPa 0,0 l/m 0,0 km/h (0 Bft) SW 225 -0,8 C 16,1 C 0,0 km/h (0 Bft)
18.03.2014 15:40 19,0 C 26 % 1016,9 hPa 0,0 l/m 0,0 km/h (0 Bft) SW 225 -0,9 C 16,1 C 0,0 km/h (0 Bft)
18.03.2014 15:45 19,1 C 26 % 1016,6 hPa 0,0 l/m 0,0 km/h (0 Bft) SW 225 -0,8 C 16,1 C 0,0 km/h (0 Bft)
18.03.2014 15:50 19,0 C 27 % 1016,6 hPa 0,0 l/m 0,0 km/h (0 Bft) SW 225 -0,4 C 16,1 C 0,0 km/h (0 Bft)
18.03.2014 15:55 18,9 C 27 % 1016,6 hPa 0,0 l/m 0,0 km/h (0 Bft) SW 225 -0,5 C 16,1 C 0,0 km/h (0 Bft)
18.03.2014 16:00 19,1 C 28 % 1016,6 hPa 0,0 l/m 0,0 km/h (0 Bft) SW 225 0,2 C 16,1 C 0,0 km/h (0 Bft)
18.03.2014 16:05 19,1 C 28 % 1016,4 hPa 0,0 l/m 0,0 km/h (0 Bft) SW 225 0,2 C 16,1 C 0,0 km/h (0 Bft)
18.03.2014 16:10 18,8 C 28 % 1016,4 hPa 0,0 l/m 0,0 km/h (0 Bft) SW 225 -0,1 C 16,1 C 0,0 km/h (0 Bft)
18.03.2014 16:15 18,5 C 28 % 1016,4 hPa 0,0 l/m 0,0 km/h (0 Bft) SW 225 -0,3 C 16,1 C 0,0 km/h (0 Bft)
18.03.2014 16:20 17,9 C 29 % 1016,4 hPa 0,0 l/m 0,0 km/h (0 Bft) SW 225 -0,4 C 16,1 C 0,0 km/h (0 Bft)
18.03.2014 16:25 17,5 C 30 % 1016,4 hPa 0,0 l/m 0,0 km/h (0 Bft) SW 225 -0,3 C 16,1 C 0,0 km/h (0 Bft)
18.03.2014 16:30 17,2 C 30 % 1016,4 hPa 0,0 l/m 0,0 km/h (0 Bft) SW 225 -0,5 C 16,1 C 0,0 km/h (0 Bft)
18.03.2014 16:35 17,0 C 30 % 1016,4 hPa 0,0 l/m 0,0 km/h (0 Bft) SW 225 -0,7 C 16,1 C 0,0 km/h (0 Bft)
18.03.2014 16:40 16,8 C 31 % 1016,4 hPa 0,0 l/m 0,0 km/h (0 Bft) SW 225 -0,4 C 16,1 C 0,0 km/h (0 Bft)
18.03.2014 16:45 16,7 C 32 % 1016,5 hPa 0,0 l/m 0,0 km/h (0 Bft) SW 225 -0,1 C 16,1 C 0,0 km/h (0 Bft)
18.03.2014 16:50 16,3 C 33 % 1016,5 hPa 0,0 l/m 0,0 km/h (0 Bft) SW 225 0,0 C 16,1 C 0,0 km/h (0 Bft)
18.03.2014 16:55 16,1 C 34 % 1016,5 hPa 0,0 l/m 0,0 km/h (0 Bft) SW 225 0,2 C 16,1 C 0,0 km/h (0 Bft)
18.03.2014 17:00 16,0 C 33 % 1016,5 hPa 0,0 l/m 0,0 km/h (0 Bft) SW 225 -0,3 C 16,1 C 0,0 km/h (0 Bft)
18.03.2014 17:05 15,8 C 31 % 1016,2 hPa 0,0 l/m 0,0 km/h (0 Bft) SW 225 -1,3 C 16,1 C 0,0 km/h (0 Bft)
18.03.2014 17:10 15,4 C 33 % 1016,2 hPa 0,0 l/m 0,0 km/h (0 Bft) SW 225 -0,8 C 16,1 C 0,0 km/h (0 Bft)
18.03.2014 17:15 15,6 C 32 % 1016,2 hPa 0,0 l/m 0,0 km/h (0 Bft) SW 225 -1,0 C 16,1 C 0,0 km/h (0 Bft)
18.03.2014 17:20 15,4 C 32 % 1016,2 hPa 0,0 l/m 0,0 km/h (0 Bft) SW 225 -1,2 C 16,1 C 0,0 km/h (0 Bft)
18.03.2014 17:25 15,2 C 33 % 1016,0 hPa 0,0 l/m 0,0 km/h (0 Bft) SW 225 -1,0 C 16,1 C 0,0 km/h (0 Bft)
18.03.2014 17:30 15,0 C 32 % 1016,0 hPa 0,0 l/m 0,0 km/h (0 Bft) SW 225 -1,5 C 16,1 C 0,0 km/h (0 Bft)
18.03.2014 17:35 15,0 C 33 % 1016,0 hPa 0,0 l/m 0,0 km/h (0 Bft) SW 225 -1,1 C 16,1 C 0,0 km/h (0 Bft)
18.03.2014 17:40 14,7 C 33 % 1016,0 hPa 0,0 l/m 0,0 km/h (0 Bft) SW 225 -1,4 C 16,1 C 0,0 km/h (0 Bft)
18.03.2014 17:45 14,7 C 33 % 1016,1 hPa 0,0 l/m 0,0 km/h (0 Bft) SW 225 -1,4 C 16,1 C 0,0 km/h (0 Bft)
18.03.2014 17:50 14,3 C 34 % 1016,1 hPa 0,0 l/m 0,0 km/h (0 Bft) SW 225 -1,3 C 16,1 C 0,0 km/h (0 Bft)
18.03.2014 17:55 14,1 C 34 % 1016,1 hPa 0,0 l/m 0,0 km/h (0 Bft) SW 225 -1,5 C 16,1 C 0,0 km/h (0 Bft)
18.03.2014 18:00 13,9 C 35 % 1016,1 hPa 0,0 l/m 0,0 km/h (0 Bft) SW 225 -1,3 C 16,1 C 0,0 km/h (0 Bft)
18.03.2014 18:05 14,0 C 35 % 1016,4 hPa 0,0 l/m 0,0 km/h (0 Bft) SW 225 -1,2 C 16,1 C 0,0 km/h (0 Bft)
18.03.2014 18:10 13,9 C 36 % 1016,4 hPa 0,0 l/m 0,0 km/h (0 Bft) SW 225 -0,9 C 16,1 C 0,0 km/h (0 Bft)
18.03.2014 18:13 13,6 C 37 % 1016,4 hPa 0,0 l/m 0,0 km/h (0 Bft) SW 225 -0,8 C 16,1 C 0,0 km/h (0 Bft)
18.03.2014 18:15 13,6 C 37 % 1016,4 hPa 0,0 l/m 0,0 km/h (0 Bft) SW 225 -0,8 C 16,1 C 0,0 km/h (0 Bft)
18.03.2014 18:20 13,0 C 39 % 1016,4 hPa 0,0 l/m 0,0 km/h (0 Bft) SW 225 -0,6 C 16,1 C 0,0 km/h (0 Bft)
18.03.2014 18:25 13,2 C 39 % 1016,4 hPa 0,0 l/m 0,0 km/h (0 Bft) SW 225 -0,4 C 16,1 C 0,0 km/h (0 Bft)
18.03.2014 18:30 13,0 C 40 % 1016,4 hPa 0,0 l/m 0,0 km/h (0 Bft) SW 225 -0,3 C 16,1 C 0,0 km/h (0 Bft)
18.03.2014 18:35 12,8 C 41 % 1016,4 hPa 0,0 l/m 0,0 km/h (0 Bft) SW 225 -0,1 C 16,1 C 0,0 km/h (0 Bft)
18.03.2014 18:40 12,3 C 43 % 1016,4 hPa 0,0 l/m 0,0 km/h (0 Bft) SW 225 0,1 C 16,1 C 0,0 km/h (0 Bft)
18.03.2014 18:45 12,3 C 43 % 1016,6 hPa 0,0 l/m 0,0 km/h (0 Bft) SW 225 0,1 C 16,1 C 0,0 km/h (0 Bft)
18.03.2014 18:50 12,0 C 45 % 1016,6 hPa 0,0 l/m 0,0 km/h (0 Bft) SW 225 0,4 C 16,1 C 0,0 km/h (0 Bft)
18.03.2014 18:55 11,5 C 46 % 1016,6 hPa 0,0 l/m 0,0 km/h (0 Bft) SW 225 0,3 C 16,1 C 0,0 km/h (0 Bft)
18.03.2014 19:00 11,5 C 47 % 1016,6 hPa 0,0 l/m 0,0 km/h (0 Bft) SW 225 0,6 C 16,1 C 0,0 km/h (0 Bft)
18.03.2014 19:05 11,3 C 48 % 1016,8 hPa 0,0 l/m 0,0 km/h (0 Bft) SW 225 0,7 C 16,1 C 0,0 km/h (0 Bft)
18.03.2014 19:10 11,7 C 47 % 1016,8 hPa 0,0 l/m 0,0 km/h (0 Bft) SW 225 0,8 C 16,1 C 0,0 km/h (0 Bft)
18.03.2014 19:15 11,7 C 47 % 1016,8 hPa 0,0 l/m 0,0 km/h (0 Bft) SW 225 0,8 C 16,1 C 0,0 km/h (0 Bft)
18.03.2014 19:20 11,5 C 47 % 1016,8 hPa 0,0 l/m 0,0 km/h (0 Bft) SW 225 0,6 C 16,1 C 0,0 km/h (0 Bft)
18.03.2014 19:25 11,5 C 47 % 1016,6 hPa 0,0 l/m 0,0 km/h (0 Bft) SW 225 0,6 C 16,1 C 0,0 km/h (0 Bft)
18.03.2014 19:30 11,3 C 47 % 1016,6 hPa 0,0 l/m 0,0 km/h (0 Bft) SW 225 0,4 C 16,1 C 0,0 km/h (0 Bft)
18.03.2014 19:35 11,1 C 47 % 1016,6 hPa 0,0 l/m 0,0 km/h (0 Bft) SW 225 0,2 C 16,1 C 0,0 km/h (0 Bft)
18.03.2014 19:40 11,3 C 46 % 1016,6 hPa 0,0 l/m 0,0 km/h (0 Bft) SW 225 0,1 C 16,1 C 0,0 km/h (0 Bft)
18.03.2014 19:45 11,4 C 46 % 1016,7 hPa 0,0 l/m 0,0 km/h (0 Bft) SW 225 0,2 C 16,1 C 0,0 km/h (0 Bft)
18.03.2014 19:50 11,0 C 46 % 1016,7 hPa 0,0 l/m 0,0 km/h (0 Bft) SW 225 -0,2 C 16,1 C 0,0 km/h (0 Bft)
18.03.2014 19:55 11,0 C 46 % 1016,7 hPa 0,0 l/m 0,0 km/h (0 Bft) SW 225 -0,2 C 16,1 C 0,0 km/h (0 Bft)
18.03.2014 20:00 10,9 C 47 % 1016,7 hPa 0,0 l/m 0,0 km/h (0 Bft) SW 225 0,0 C 16,1 C 0,0 km/h (0 Bft)
18.03.2014 20:05 10,9 C 47 % 1016,8 hPa 0,0 l/m 0,0 km/h (0 Bft) SW 225 0,0 C 16,1 C 0,0 km/h (0 Bft)
18.03.2014 20:10 11,1 C 46 % 1016,8 hPa 0,0 l/m 0,0 km/h (0 Bft) SW 225 -0,1 C 16,1 C 0,0 km/h (0 Bft)
18.03.2014 20:15 11,3 C 46 % 1016,8 hPa 0,0 l/m 0,0 km/h (0 Bft) SW 225 0,1 C 16,1 C 0,0 km/h (0 Bft)
18.03.2014 20:20 11,3 C 46 % 1016,8 hPa 0,0 l/m 0,0 km/h (0 Bft) SW 225 0,1 C 16,1 C 0,0 km/h (0 Bft)
18.03.2014 20:25 11,3 C 46 % 1016,7 hPa 0,0 l/m 0,0 km/h (0 Bft) SW 225 0,1 C 16,1 C 0,0 km/h (0 Bft)
18.03.2014 20:30 10,9 C 47 % 1016,7 hPa 0,0 l/m 0,0 km/h (0 Bft) SW 225 0,0 C 16,1 C 0,0 km/h (0 Bft)
18.03.2014 20:35 11,0 C 46 % 1016,7 hPa 0,0 l/m 0,0 km/h (0 Bft) SW 225 -0,2 C 16,1 C 0,0 km/h (0 Bft)
18.03.2014 20:40 11,0 C 46 % 1016,7 hPa 0,0 l/m 0,0 km/h (0 Bft) SW 225 -0,2 C 16,1 C 0,0 km/h (0 Bft)
18.03.2014 20:45 10,7 C 46 % 1016,6 hPa 0,0 l/m 0,0 km/h (0 Bft) SW 225 -0,4 C 16,1 C 0,0 km/h (0 Bft)
18.03.2014 20:50 10,9 C 46 % 1016,6 hPa 0,0 l/m 0,0 km/h (0 Bft) SW 225 -0,3 C 16,1 C 0,0 km/h (0 Bft)
18.03.2014 20:55 11,2 C 44 % 1016,6 hPa 0,0 l/m 0,0 km/h (0 Bft) SW 225 -0,6 C 16,1 C 0,0 km/h (0 Bft)
18.03.2014 21:00 11,4 C 43 % 1016,6 hPa 0,0 l/m 0,0 km/h (0 Bft) SW 225 -0,7 C 16,1 C 0,0 km/h (0 Bft)
18.03.2014 21:05 11,5 C 42 % 1016,5 hPa 0,0 l/m 0,0 km/h (0 Bft) SW 225 -1,0 C 16,1 C 0,0 km/h (0 Bft)
18.03.2014 21:10 11,5 C 41 % 1016,5 hPa 0,0 l/m 0,0 km/h (0 Bft) SW 225 -1,3 C 16,1 C 0,0 km/h (0 Bft)
18.03.2014 21:15 11,5 C 41 % 1016,5 hPa 0,0 l/m 0,0 km/h (0 Bft) SW 225 -1,3 C 16,1 C 0,0 km/h (0 Bft)
18.03.2014 21:20 11,2 C 41 % 1016,5 hPa 0,0 l/m 0,0 km/h (0 Bft) SW 225 -1,6 C 16,1 C 0,0 km/h (0 Bft)
18.03.2014 21:25 11,5 C 41 % 1016,9 hPa 0,0 l/m 0,0 km/h (0 Bft) SW 225 -1,3 C 16,1 C 0,0 km/h (0 Bft)
18.03.2014 21:30 11,7 C 40 % 1016,9 hPa 0,0 l/m 0,0 km/h (0 Bft) SW 225 -1,4 C 16,1 C 0,0 km/h (0 Bft)
18.03.2014 21:35 11,6 C 40 % 1016,9 hPa 0,0 l/m 0,0 km/h (0 Bft) SW 225 -1,5 C 16,1 C 0,0 km/h (0 Bft)
18.03.2014 21:40 11,7 C 41 % 1016,9 hPa 0,0 l/m 0,0 km/h (0 Bft) SW 225 -1,1 C 16,1 C 0,0 km/h (0 Bft)
18.03.2014 21:45 11,8 C 41 % 1017,0 hPa 0,0 l/m 0,0 km/h (0 Bft) SW 225 -1,0 C 16,1 C 0,0 km/h (0 Bft)
18.03.2014 21:50 12,1 C 40 % 1017,0 hPa 0,0 l/m 0,0 km/h (0 Bft) SW 225 -1,1 C 16,1 C 0,0 km/h (0 Bft)
18.03.2014 21:55 12,3 C 41 % 1017,0 hPa 0,0 l/m 0,0 km/h (0 Bft) SW 225 -0,6 C 16,1 C 0,0 km/h (0 Bft)
18.03.2014 22:00 12,3 C 41 % 1017,0 hPa 0,0 l/m 0,0 km/h (0 Bft) SW 225 -0,6 C 16,1 C 0,0 km/h (0 Bft)
18.03.2014 22:05 12,6 C 40 % 1016,9 hPa 0,0 l/m 0,0 km/h (0 Bft) SW 225 -0,6 C 16,1 C 0,0 km/h (0 Bft)
18.03.2014 22:10 12,7 C 40 % 1016,9 hPa 0,0 l/m 0,0 km/h (0 Bft) SW 225 -0,5 C 16,1 C 0,0 km/h (0 Bft)
18.03.2014 22:15 12,6 C 40 % 1016,9 hPa 0,0 l/m 0,0 km/h (0 Bft) SW 225 -0,6 C 16,1 C 0,0 km/h (0 Bft)
18.03.2014 22:20 12,4 C 41 % 1016,9 hPa 0,0 l/m 0,0 km/h (0 Bft) SW 225 -0,5 C 16,1 C 0,0 km/h (0 Bft)
18.03.2014 22:25 12,2 C 41 % 1016,9 hPa 0,0 l/m 0,0 km/h (0 Bft) SW 225 -0,7 C 16,1 C 0,0 km/h (0 Bft)
18.03.2014 22:30 11,9 C 41 % 1016,9 hPa 0,0 l/m 0,0 km/h (0 Bft) SW 225 -0,9 C 16,1 C 0,0 km/h (0 Bft)
18.03.2014 22:35 11,7 C 41 % 1016,9 hPa 0,0 l/m 0,0 km/h (0 Bft) SW 225 -1,1 C 16,1 C 0,0 km/h (0 Bft)
18.03.2014 22:40 11,8 C 41 % 1016,9 hPa 0,0 l/m 0,0 km/h (0 Bft) SW 225 -1,0 C 16,1 C 0,0 km/h (0 Bft)
18.03.2014 22:45 11,6 C 42 % 1017,1 hPa 0,0 l/m 0,0 km/h (0 Bft) SW 225 -0,9 C 16,1 C 0,0 km/h (0 Bft)
18.03.2014 22:50 11,4 C 43 % 1017,1 hPa 0,0 l/m 0,0 km/h (0 Bft) SW 225 -0,7 C 16,1 C 0,0 km/h (0 Bft)
18.03.2014 22:55 11,4 C 43 % 1017,1 hPa 0,0 l/m 0,0 km/h (0 Bft) SW 225 -0,7 C 16,1 C 0,0 km/h (0 Bft)
18.03.2014 23:00 11,4 C 43 % 1017,1 hPa 0,0 l/m 0,0 km/h (0 Bft) SW 225 -0,7 C 16,1 C 0,0 km/h (0 Bft)
18.03.2014 23:05 12,0 C 42 % 1017,2 hPa 0,0 l/m 0,0 km/h (0 Bft) SW 225 -0,5 C 16,1 C 0,0 km/h (0 Bft)
18.03.2014 23:10 12,2 C 42 % 1017,2 hPa 0,0 l/m 0,0 km/h (0 Bft) SW 225 -0,3 C 16,1 C 0,0 km/h (0 Bft)
18.03.2014 23:13 12,3 C 41 % 1017,2 hPa 0,0 l/m 0,0 km/h (0 Bft) SW 225 -0,6 C 16,1 C 0,0 km/h (0 Bft)
18.03.2014 23:15 12,3 C 41 % 1017,2 hPa 0,0 l/m 0,0 km/h (0 Bft) SW 225 -0,6 C 16,1 C 0,0 km/h (0 Bft)
18.03.2014 23:20 12,1 C 42 % 1017,2 hPa 0,0 l/m 0,0 km/h (0 Bft) SW 225 -0,4 C 16,1 C 0,0 km/h (0 Bft)
18.03.2014 23:25 12,3 C 42 % 1017,6 hPa 0,0 l/m 0,0 km/h (0 Bft) SW 225 -0,2 C 16,1 C 0,0 km/h (0 Bft)
18.03.2014 23:30 12,1 C 42 % 1017,6 hPa 0,0 l/m 0,0 km/h (0 Bft) SW 225 -0,4 C 16,1 C 0,0 km/h (0 Bft)
18.03.2014 23:35 12,1 C 43 % 1017,6 hPa 0,0 l/m 0,0 km/h (0 Bft) SW 225 -0,1 C 16,1 C 0,0 km/h (0 Bft)
18.03.2014 23:40 12,0 C 43 % 1017,6 hPa 0,0 l/m 0,0 km/h (0 Bft) SW 225 -0,2 C 16,1 C 0,0 km/h (0 Bft)
18.03.2014 23:45 12,0 C 44 % 1017,8 hPa 0,0 l/m 0,0 km/h (0 Bft) SW 225 0,1 C 16,1 C 0,0 km/h (0 Bft)
18.03.2014 23:50 12,0 C 45 % 1017,8 hPa 0,0 l/m 0,0 km/h (0 Bft) SW 225 0,4 C 16,1 C 0,0 km/h (0 Bft)
18.03.2014 23:55 11,7 C 48 % 1017,8 hPa 0,0 l/m 0,0 km/h (0 Bft) SW 225 1,1 C 16,1 C 0,0 km/h (0 Bft)
_ Min-Zeit 05:55 15:45 17:40 - 23:55 - - 05:55 23:55 23:55
Minimum _ -1,0 C 26 % 1016,0 hPa - 0,0 km/h (0 Bft) - - -3,5 C 16,1 C 0,0 km/h (0 Bft)
_ Max-Zeit 13:55 06:30 00:00 23:55 23:55 - - 08:55 23:55 23:55
Maximum _ 20,6 C 86 % 1020,5 hPa 0,0 l/m 0,0 km/h
SW (0 Bft)
- - 5,3 C 16,1 C 0,0 km/h
SW (0 Bft)
Durchschnitt _ 10,4 C 52 % 1018,2 hPa #0,0 l/m 0,0 km/h (0 Bft) - - - -0,4 C 16,1 C 0,0 km/h (0 Bft)